Flag for U.S.A. Weather past 2 weeks in Abilene, Texas, U.S.A.

Now
68 °F

Sunny.


Feels Like: 68 °F
Forecast: 57 / 84 °F
Wind: 10 mph from West

Location: Abilene Regional Airport

Current Time: Apr 25, 2015 at 9:33:45 AM

Latest Report: Apr 25, 2015 at 8:52 AM


Visibility: 10 mi

Pressure: 29.76 "Hg

Humidity: 36%

Dew point: 40 °F

Location of AbileneLocation

Historic Weather in Abilene — Graph

°F

Abilene temperature yesterday

Maximum temperature yesterday: 78 °F (at 2:52 PM)
Minimum temperature yesterday: 62 °F (at 6:52 AM)
Average temperature yesterday: 68 °F

Past Weeks' High & Low Weather Summary

 TemperatureHumidityPressure
High84 °F (Apr 12, 3:52 PM)100% (Apr 12, 10:52 PM)30.20 "Hg (Apr 12, 10:52 PM)
Low45 °F (Apr 15, 2:52 AM)26% (Apr 19, 2:52 PM)29.64 "Hg (Apr 24, 7:52 PM)
Average65 °F68%29.88 "Hg
* Reported Apr 10 7:52 AM — Apr 25 7:52 AM, Abilene, Weather by CustomWeather, © 2015

Note: Actual official high and low records may vary slightly from our data, if they occured in-between our weather recording intervals... More about our weather records

Advertising

Abilene weather history for previous 24 hours

 ConditionsComfort  
Time TempWeatherWind HumidityBarometerVisibility
7:52 AM
Sat, Apr 25
57 °FClear.6 mph58%29.75 "Hg10 mi
6:52 AM54 °FClear.8 mph62%29.74 "Hg10 mi
5:52 AM59 °FClear.3 mph44%29.72 "Hg10 mi
4:52 AM64 °FClear.9 mph35%29.71 "Hg10 mi
3:52 AM59 °FClear.9 mph48%29.71 "Hg10 mi
2:52 AM58 °FClear.7 mph65%29.70 "Hg10 mi
1:52 AM60 °FClear.6 mph72%29.71 "Hg10 mi
12:52 AM64 °FClear.9 mph68%29.70 "Hg10 mi
11:52 PM
Fri, Apr 24
63 °FClear.7 mph81%29.70 "Hg10 mi
10:52 PM65 °FClear.9 mph85%29.70 "Hg10 mi
9:52 PM66 °FClear.6 mph84%29.69 "Hg10 mi
8:52 PM68 °FSunny.8 mph82%29.67 "Hg10 mi
7:52 PM72 °FSunny.9 mph76%29.64 "Hg10 mi
5:52 PM75 °FSunny.No wind64%29.64 "Hg10 mi
4:52 PM74 °FPassing clouds.8 mph64%29.65 "Hg10 mi
3:52 PM74 °FPassing clouds.9 mph64%29.64 "Hg10 mi
2:52 PM78 °FPassing clouds.9 mph58%29.69 "Hg10 mi
1:52 PM75 °FBroken clouds.12 mph62%29.71 "Hg10 mi
12:52 PM70 °FOvercast.5 mph68%29.75 "Hg10 mi
11:52 AM67 °FLight rain. Partly sunny.10 mph79%29.76 "Hg10 mi
10:52 AM67 °FOvercast.No wind79%29.79 "Hg10 mi
9:55 AM63 °FPartly sunny.3 mph93%29.86 "Hg10 mi
Weather by CustomWeather, © 2015

See weather overviewHow to use our weather pages